GSAT-10 (38779 NORAD) Tracking and Keplerian Element Data

This shows tracking and keplerian element data for the satellite.

Feedback or suggestion? Click here.




ElementValue
Catalog38779
NameGSAT-10
Epoch Orbit4510
Epoch Day34.85378703
Epoch Year2025
RAAN267.7428
Inclination0.0755
Eccentricity0.0002601
Argument of Perigee179.7182
Mean Anonmoly77.2052
Mean Motion1.00270747
Decay Rate-1.61E-06
L11 38779U 12051B 25034.85378703 -.00000161 00000+0 00000+0 0 9995
L22 38779 0.0755 267.7428 0002601 179.7182 77.2052 1.00270747 45104



Live tracking and technical data element details for GSAT-10 (NORAD 38779). GSAT-10 can be tracked NOW for your location showing map with azimuth and elevation plus other details from your city location.







IsCatalogInMostPopularTable: catalog: 38779, numindb: 580
Update: records affected: 1



GetName: 38779 GSAT-10

Hit Count: updated at: Thu, 15 May 2025 19:51:40 GMT